Find Mohammed VI-A

NORAD ID: 43005 Int'l Des: 2017-070 Owner: RMAF Country: MA operational
LEOCIRCULARRETROGRADESSO

Live Position

Loading 3D Globe...

About Mohammed VI-A

Description loading...

Upcoming Passes

Passes for default location (London). Set your location on the main map for personalized predictions.

Altitude History

Loading altitude history...

Two-Line Element Set

1 43005U 17070A 26105.95600801 .00000041 00000-0 13053-4 0 9991
2 43005 97.9589 179.1346 0001056 83.9351 276.1979 14.77074817454799
Epoch: Apr 15, 2026 • Age: 8 hours

Current Status

Altitude 655.4 km
Velocity 7.53 km/s
Sub-Earth Point -42.33°S, 50.97°E
Launch Date Nov 8, 2017
Age 8.4 years
Type other

Technical Details

Classification Payload
Mass 1110.00 kg
Dry Mass 900.00 kg
Total Mass 1110.00 kg
Length 4.00 m
Diameter 2.00 m
Span 8.00 m
Shape Hex-cyl+3 panels
Manufacturer ADST
Bus Type Astrosat-1000
Phase Status In Orbit
Owner/State RMAF/MA

Most Searched